User: anonymous   Login
Location: Kosice
(0.0000°N, 21.2500°E)
Time: 05:47:34
(UTC+02:00)
Language:

Cosmos 2112 Rocket - Orbit

View from above orbital plane
View from above orbital plane
View from above satellite
View from above satellite

Ground track
Ground track

The orbit data is extracted from the following two-line orbital elements,

1 21015U 90111B   21107.38988288 -.00000014  00000-0  41958-5 0  9994
2 21015  74.0496  88.7986 0021531   4.0875 148.4277 14.36033083686872
Epoch (UTC): 17 April 2021 09:21:25
Eccentricity: 0.0021531
inclination: 74.0496°
perigee height: 756 km
apogee height: 787 km
right ascension of ascending node: 88.7986°
argument of perigee: 4.0875°
revolutions per day: 14.36033083
mean anomaly at epoch: 148.4277°
orbit number at epoch: 68687

The dashed part of the orbit path shows where the satellite is in the earth's shadow,  

DLR